Temp
71 71 70 71 71 70 70 71 71 71 71 72 72 73 73 73 71 72 72 71 71 71 73 72 72 73 74 75 71 71 70 69 68 70 69 69 69 70 71 72 72 71 70
70 69 70 70 70 69 69 69 69 69 70 72 72 71 72 72 72 71 72 74 72 73 73 72 72 74 73 74 74 71 71 71 69 68 71 67 68 70 69 69 70 72 71
68 68 67 67 66 66 66 67 67 67 69 69 70 70 71 71 71 70 71 72 73 74 74 73 73 73 72 74 74 74 72 72 70 69 70 68 68 68 68 68 69 69 71
68 67 66 65 65 65 66 66 66 67 67 68 68 69 70 71 71 71 71 70 71 73 73 74 74 74 73 73 73 73 73 71 71 69 69 69 68 67 67 66 67 67 68
65 65 66 66 65 65 65 65 66 66 67 67 68 69 69 69 71 69 70 70 71 73 73 73 74 75 74 73 72 71 71 71 70 69 68 69 70 68 66 66 66 66 67
63 65 66 64 64 64 64 64 64 65 65 65 66 67 68 69 67 65 68 69 71 72 72 73 71 71 70 68 69 69 71 70 69 69 69 69 71 70 66 66 66 64 64
63 65 65 64 63 63 63 62 62 62 63 64 65 66 66 67 64 63 65 67 69 71 72 71 71 72 69 71 66 65 66 66 68 70 69 69 70 72 69 65 65 65 65
62 64 64 64 63 62 61 61 60 60 61 62 64 65 65 66 63 60 61 65 67 69 71 71 71 70 69 67 68 66 67 68 67 68 70 72 73 73 70 70 69 67 66
62 62 63 62 61 61 60 59 60 60 61 61 64 64 64 66 61 58 59 65 66 67 70 71 71 69 66 62 67 66 67 67 66 64 65 66 66 64 67 67 66 65 64
62 62 62 61 60 59 59 58 59 60 61 62 63 65 63 65 60 56 57 64 65 66 67 69 64 67 61 59 65 66 64 66 67 69 66 64 64 66 63 70 69 66 64
61 60 60 60 59 58 58 58 58 60 61 62 63 63 64 64 64 55 54 59 65 65 66 67 67 59 56 54 57 65 64 66 66 68 69 70 70 70 68 69 70 70 64
59 59 59 59 59 60 57 58 59 60 60 61 61 61 63 64 58 55 53 53 57 62 65 67 66 56 54 53 54 58 56 59 66 66 67 67 68 69 70 70 70 69 69
58 58 58 60 59 58 57 58 59 60 58 58 60 60 59 60 59 54 51 53 55 57 62 62 54 52 51 53 53 55 55 62 64 66 65 66 69 71 70 68 68 68 67
58 57 56 56 56 56 58 58 59 58 58 57 57 58 58 57 56 56 56 58 58 58 59 59 58 58 57 58 59 60 63 64 65 66 66 65 68 68 67 68 66 65 64
56 55 55 55 56 57 57 58 59 60 58 59 55 54 53 53 52 47 46 52 53 55 55 61 62 62 62 63 63 64 65 66 65 67 67 66 66 67 66 66 65 64 63
55 55 55 55 56 57 56 58 56 53 49 45 43 45 51 48 44 44 42 42 44 46 60 62 62 62 62 62 62 62 63 64 64 64 65 65 65 65 64 64 63 63 61
56 55 55 57 57 57 58 57 57 60 47 45 43 42 41 42 45 43 41 41 44 51 62 61 61 61 61 61 61 62 62 62 64 64 64 64 64 63 63 63 62 61 60
58 53 56 57 58 58 58 58 59 58 60 61 47 44 42 43 44 42 41 45 58 55 59 60 59 59 60 60 61 61 61 62 62 62 62 63 63 62 62 61 60 60 60
58 58 58 58 58 57 58 59 60 60 59 58 57 49 46 42 42 42 42 53 56 56 56 56 57 58 59 60 60 60 61 61 61 61 61 61 61 61 60 60 60 55 57
59 58 56 58 58 59 59 59 59 63 60 61 58 57 55 52 56 56 57 56 60 57 55 55 55 55 56 57 57 57 58 58 59 60 61 61 61 61 60 59 59 59 58
57 57 58 57 58 58 60 59 60 62 64 60 59 59 51 57 56 58 58 58 58 57 56 56 55 55 56 56 57 56 56 58 58 58 58 57 58 58 58 56 55 54 55
57 56 60 58 60 58 60 61 62 62 60 60 62 60 47 56 56 58 58 60 58 58 58 57 59 57 58 58 58 58 58 58 58 58 57 57 56 56 56 55 55 54 54
58 58 58 58 59 58 60 60 59 60 58 61 61 60 57 56 56 57 61 61 60 59 58 60 62 62 59 59 59 59 58 58 59 59 58 58 57 57 57 56 56 54 53
57 59 57 56 56 57 57 56 57 53 55 56 57 56 55 55 56 59 59 61 63 60 61 60 58 63 64 63 62 63 62 62 63 60 61 60 59 55 56 56 55 55 54
54 53 53 53 53 52 53 55 53 54 55 55 52 50 51 52 52 55 56 56 57 57 58 58 57 57 60 64 61 64 54 42 58 54 60 61 59 58 57 56 55 55 54
49 50 50 49 49 50 49 49 50 51 52 53 52 51 49 49 49 50 51 52 53 53 51 50 49 46 48 46 45 40 37 35 47 41 59 60 59 58 56 55 55 54 54
MSLP
1013.03 1013.02 1013.00 1012.84 1012.65 1012.49 1012.39 1012.17 1012.09 1011.95 1011.71 1011.41 1011.20 1011.01 1010.93 1011.00 1011.00 1011.10 1011.22 1011.39 1011.48 1011.35 1011.23 1011.12 1011.30 1011.44 1011.70 1012.07 1012.63 1012.79 1013.13 1013.34 1013.18 1012.66 1012.57 1012.36 1012.35 1012.22 1012.16 1011.76 1011.76 1011.67 1011.54
1013.01 1012.94 1012.79 1012.55 1012.38 1012.21 1011.97 1011.81 1011.64 1011.41 1011.10 1010.82 1010.49 1010.22 1010.17 1010.09 1010.16 1010.18 1010.16 1010.23 1010.37 1010.38 1010.30 1010.48 1010.37 1010.68 1010.78 1011.04 1011.35 1011.67 1011.95 1012.17 1012.47 1012.23 1011.94 1011.93 1012.14 1011.50 1011.40 1011.53 1011.61 1011.37 1011.20
1012.63 1012.65 1012.50 1012.34 1012.19 1011.99 1011.75 1011.39 1011.11 1010.94 1010.66 1010.33 1010.11 1009.75 1009.60 1009.39 1009.33 1009.29 1009.20 1009.09 1009.05 1009.03 1009.09 1009.29 1009.31 1009.69 1009.66 1009.98 1010.29 1010.50 1010.71 1010.98 1011.34 1011.56 1011.28 1011.09 1011.17 1011.07 1011.10 1011.07 1011.20 1011.18 1010.82
1012.60 1012.40 1012.12 1011.80 1011.55 1011.35 1011.07 1010.88 1010.66 1010.36 1010.13 1009.81 1009.39 1009.08 1008.82 1008.58 1008.44 1008.38 1008.31 1008.21 1008.09 1007.79 1007.83 1008.01 1008.12 1008.34 1008.40 1008.67 1008.98 1009.12 1009.44 1009.73 1010.23 1010.42 1010.54 1010.67 1010.66 1010.85 1011.16 1011.08 1011.17 1011.06 1010.89
1012.59 1012.32 1011.81 1011.18 1010.92 1010.71 1010.54 1010.29 1010.07 1009.80 1009.44 1009.16 1008.82 1008.39 1008.00 1007.70 1007.44 1007.43 1007.45 1007.31 1007.12 1006.86 1006.70 1006.78 1006.78 1006.83 1006.89 1007.09 1007.55 1007.72 1008.25 1008.65 1008.94 1009.14 1009.22 1009.86 1009.83 1010.35 1010.86 1010.68 1010.96 1010.80 1010.55
1012.22 1011.77 1011.14 1010.75 1010.50 1010.29 1010.07 1009.84 1009.65 1009.37 1008.85 1008.44 1008.05 1007.67 1007.26 1006.85 1006.44 1006.39 1006.58 1006.52 1006.19 1005.83 1005.59 1005.51 1005.69 1005.97 1006.16 1006.29 1006.41 1006.52 1006.89 1007.72 1007.96 1007.77 1007.88 1008.22 1008.81 1009.33 1010.00 1010.53 1010.54 1010.79 1010.84
1011.59 1011.16 1010.74 1010.34 1010.12 1009.87 1009.64 1009.41 1009.20 1008.94 1008.47 1007.91 1007.34 1006.97 1006.51 1006.00 1005.64 1005.53 1005.61 1005.58 1005.34 1004.88 1004.55 1004.57 1004.74 1004.81 1005.05 1005.47 1005.97 1006.19 1006.23 1006.70 1007.13 1006.96 1006.79 1006.91 1007.47 1008.26 1009.28 1009.65 1010.00 1010.18 1010.18
1011.07 1010.66 1010.29 1009.89 1009.54 1009.43 1009.39 1008.97 1008.64 1008.34 1007.99 1007.38 1006.80 1006.22 1005.74 1005.10 1004.72 1004.65 1004.77 1004.60 1004.35 1003.92 1003.62 1003.60 1003.64 1003.69 1004.09 1004.54 1005.00 1005.51 1005.56 1005.79 1006.33 1006.52 1006.10 1005.84 1006.28 1007.11 1008.16 1008.35 1008.56 1009.23 1009.44
1010.57 1010.00 1009.61 1009.35 1009.25 1009.12 1008.89 1008.53 1008.13 1007.89 1007.37 1006.81 1006.11 1005.47 1004.97 1004.22 1003.90 1003.83 1004.03 1003.75 1003.25 1003.01 1002.87 1002.65 1002.73 1002.66 1002.75 1003.39 1004.20 1004.46 1004.89 1005.06 1005.10 1005.05 1005.25 1005.25 1005.25 1005.94 1007.03 1008.08 1008.44 1008.85 1009.15
1010.07 1009.44 1009.14 1008.75 1008.68 1008.48 1008.32 1007.98 1007.73 1007.49 1006.86 1006.19 1005.53 1004.82 1004.20 1003.83 1003.40 1003.16 1003.17 1002.97 1002.50 1002.31 1002.19 1001.88 1001.85 1001.97 1002.31 1002.92 1003.42 1003.46 1003.77 1003.39 1004.31 1004.50 1004.31 1004.52 1004.22 1004.81 1006.05 1006.81 1007.37 1007.69 1008.05
1009.51 1009.22 1008.78 1008.38 1008.27 1008.07 1007.94 1007.71 1007.50 1007.05 1006.31 1005.63 1005.10 1004.19 1003.90 1003.27 1002.97 1002.79 1002.69 1002.41 1001.95 1001.73 1001.47 1001.22 1001.06 1001.20 1001.67 1001.98 1002.27 1002.53 1002.40 1002.43 1003.13 1003.24 1003.16 1003.00 1002.71 1004.24 1005.02 1005.60 1006.17 1006.04 1006.78
1009.09 1009.03 1008.73 1008.25 1008.02 1007.79 1007.74 1007.36 1007.00 1006.56 1005.91 1005.11 1004.94 1004.24 1003.79 1003.28 1002.91 1002.69 1002.45 1002.23 1001.77 1001.49 1000.88 1000.66 1000.43 1000.38 1000.55 1000.91 1001.28 1000.84 1000.79 1001.43 1002.31 1002.46 1002.16 1001.27 1002.17 1003.55 1004.10 1004.50 1004.83 1005.36 1005.30
1009.04 1008.83 1008.51 1008.13 1007.68 1007.61 1007.47 1007.10 1006.66 1006.14 1005.52 1005.19 1004.97 1004.47 1003.84 1003.36 1002.98 1002.60 1002.30 1001.86 1001.50 1001.30 1000.73 1000.27 1000.34 1000.06 999.88 999.94 1000.02 999.42 999.65 1000.93 1001.57 1001.78 1001.26 1000.43 1002.31 1002.74 1003.72 1003.92 1004.01 1003.72 1005.10
1008.98 1008.67 1008.33 1007.95 1007.49 1007.29 1007.08 1006.72 1006.39 1005.66 1005.46 1005.15 1004.92 1004.61 1004.01 1003.51 1003.14 1002.73 1002.34 1001.75 1001.06 1000.77 1000.46 1000.18 1000.03 999.80 999.39 999.32 999.39 999.19 999.66 999.28 998.86 999.57 999.53 1000.27 999.27 1001.92 1002.56 1003.18 1003.92 1004.46 1005.21
1008.79 1008.51 1008.08 1007.81 1007.44 1007.03 1006.55 1006.18 1005.69 1005.15 1005.47 1005.15 1004.86 1004.84 1004.48 1003.77 1003.47 1003.54 1003.14 1002.22 1001.56 1000.85 1000.56 999.89 999.90 999.69 999.49 999.29 999.07 998.67 998.89 997.93 998.36 997.93 999.35 1001.89 1001.54 1001.64 1002.17 1002.80 1003.55 1004.26 1004.93
1008.43 1008.07 1007.87 1007.68 1007.16 1006.59 1006.15 1005.60 1004.95 1004.83 1004.57 1004.69 1004.71 1004.83 1004.12 1003.76 1003.53 1003.29 1002.90 1002.44 1001.47 1000.72 1000.08 999.76 999.58 999.48 999.53 999.45 999.43 999.37 999.23 999.35 999.53 999.77 999.92 1000.61 1001.13 1001.33 1002.15 1002.97 1003.37 1003.99 1004.64
1007.84 1007.61 1007.51 1007.29 1006.75 1006.35 1005.96 1005.43 1004.98 1003.78 1003.91 1003.79 1003.89 1004.22 1004.26 1003.86 1003.38 1002.96 1002.87 1002.47 1001.53 1000.79 1000.12 1000.02 999.30 999.77 999.88 999.94 999.96 999.93 999.84 999.96 1000.10 1000.53 1000.90 1001.26 1001.49 1001.92 1002.50 1003.11 1003.59 1004.04 1004.67
1007.49 1007.34 1007.17 1006.69 1006.31 1005.93 1005.58 1005.16 1005.07 1004.45 1003.82 1003.49 1003.00 1003.26 1003.46 1003.68 1003.36 1003.09 1002.95 1002.20 1001.64 1001.28 1001.08 1000.70 1000.49 1000.17 1000.49 1000.46 1000.45 1000.35 1000.37 1000.44 1000.63 1000.89 1001.10 1001.55 1001.69 1002.05 1002.70 1003.17 1003.61 1004.15 1004.69
1006.95 1006.77 1006.45 1006.05 1005.67 1005.31 1005.02 1004.65 1004.42 1003.85 1003.28 1003.00 1002.83 1002.97 1002.78 1003.18 1003.05 1002.86 1002.76 1002.60 1002.31 1001.79 1001.29 1001.10 1001.15 1001.16 1001.14 1001.03 1001.14 1001.08 1000.98 1001.00 1000.98 1001.23 1001.28 1001.50 1001.99 1002.36 1002.83 1003.34 1003.79 1004.23 1004.59
1006.85 1006.41 1005.99 1005.65 1005.18 1004.67 1004.55 1004.52 1003.82 1003.19 1002.71 1002.52 1002.49 1002.57 1002.66 1002.95 1002.99 1002.65 1002.27 1002.03 1001.72 1001.63 1001.69 1001.65 1001.70 1001.71 1001.60 1001.52 1001.73 1001.82 1001.81 1001.68 1001.78 1001.99 1002.14 1002.34 1002.71 1002.88 1003.30 1003.86 1004.25 1004.69 1005.14
1006.87 1006.24 1005.88 1005.46 1004.70 1004.21 1004.15 1004.03 1003.39 1003.17 1002.29 1002.07 1002.01 1001.92 1002.04 1002.42 1002.54 1002.36 1002.15 1001.99 1001.90 1001.79 1001.80 1001.92 1001.86 1001.82 1001.83 1001.91 1002.11 1002.24 1002.19 1002.37 1002.66 1002.82 1002.97 1003.30 1003.43 1003.69 1004.01 1004.32 1004.89 1005.32 1005.66
1006.93 1006.24 1005.65 1005.08 1004.35 1003.94 1003.56 1003.40 1003.26 1003.13 1002.55 1002.28 1001.92 1001.86 1002.00 1002.27 1002.34 1002.22 1001.98 1001.76 1001.66 1001.77 1001.89 1002.07 1002.17 1002.08 1002.01 1002.15 1002.35 1002.45 1002.42 1002.64 1002.87 1003.14 1003.45 1003.71 1004.01 1004.19 1004.60 1004.92 1005.18 1005.60 1006.05
1007.06 1006.60 1006.17 1005.43 1005.06 1004.64 1004.16 1003.65 1003.60 1002.99 1002.73 1002.25 1002.22 1002.37 1002.57 1002.61 1002.58 1002.50 1002.23 1001.90 1001.70 1001.80 1001.76 1001.73 1001.98 1002.10 1002.21 1002.34 1002.44 1002.44 1002.67 1002.90 1002.94 1003.05 1003.44 1003.90 1004.23 1004.70 1004.86 1005.13 1005.44 1005.75 1006.23
1007.76 1007.13 1006.73 1006.68 1006.50 1005.85 1005.14 1004.51 1004.25 1003.58 1003.97 1003.88 1003.44 1003.17 1003.04 1002.97 1002.92 1002.67 1002.25 1001.75 1001.64 1001.91 1001.89 1002.01 1002.18 1002.36 1002.18 1002.15 1002.24 1002.35 1002.36 1002.59 1002.64 1002.98 1003.18 1003.61 1004.08 1004.54 1004.83 1005.25 1005.40 1005.57 1005.94
1008.92 1008.42 1008.14 1008.00 1007.59 1007.43 1006.50 1005.73 1005.32 1004.10 1005.43 1005.90 1004.83 1004.65 1004.36 1004.20 1003.95 1003.51 1003.25 1002.89 1002.80 1002.83 1002.89 1002.86 1002.74 1002.74 1002.63 1002.73 1002.73 1002.43 1002.16 1002.21 1002.32 1002.50 1003.04 1003.47 1003.67 1004.06 1004.43 1004.81 1005.04 1005.39 1005.67
1010.39 1009.94 1009.38 1009.15 1008.61 1008.72 1007.95 1007.92 1007.60 1007.06 1006.61 1006.68 1006.38 1006.22 1005.74 1005.83 1005.45 1005.04 1005.09 1004.84 1004.46 1004.44 1004.32 1004.31 1004.21 1004.10 1003.85 1003.78 1003.98 1003.49 1003.53 1003.37 1003.32 1003.41 1003.33 1003.67 1003.93 1004.25 1004.42 1004.73 1004.99 1005.20 1005.33
Wind_Speed
3 4 5 6 6 6 5 6 6 7 7 8 9 8 8 8 8 8 11 12 13 13 13 14 15 13 9 9 7 8 9 8 11 6 4 2 4 5 6 5 5 5 5
3 4 6 6 6 6 6 7 7 7 8 11 9 7 7 8 9 10 12 12 14 15 16 12 14 10 13 12 9 12 10 9 8 13 6 4 6 5 5 4 5 5 5
4 6 7 7 7 7 7 7 7 7 9 9 9 9 9 8 8 9 12 13 15 15 15 15 15 13 14 12 12 11 9 9 8 8 7 3 4 2 1 3 4 5 4
7 7 8 8 7 7 7 7 7 7 9 10 9 10 11 10 10 9 10 12 14 15 16 16 16 17 18 17 14 14 11 9 8 7 8 7 4 2 2 3 4 3 4
7 8 11 10 7 7 7 7 7 7 8 9 10 11 11 11 9 10 11 12 14 16 16 17 18 21 26 21 13 13 12 10 8 7 6 6 5 3 5 2 4 2 3
8 11 11 8 7 7 7 7 7 8 8 8 10 11 12 10 13 15 14 11 13 15 16 15 17 20 20 19 19 16 15 12 12 8 5 7 10 7 4 4 3 2 3
8 11 11 9 8 7 6 6 7 8 8 9 10 10 12 13 15 16 16 11 13 14 15 14 14 13 18 17 17 15 13 13 12 9 10 11 10 9 7 6 5 4 5
9 12 12 10 7 6 6 7 7 6 8 8 9 11 12 12 16 15 15 12 13 13 14 14 16 16 14 16 14 13 14 14 14 11 13 10 9 9 12 9 10 6 1
11 10 11 8 6 6 7 7 7 7 8 9 10 12 12 14 13 14 11 10 12 13 12 12 14 13 16 15 13 14 12 12 8 13 15 15 15 14 12 4 5 5 4
12 10 8 6 7 7 7 7 5 6 9 7 10 10 12 10 11 11 10 8 10 9 9 11 16 16 15 17 17 14 11 11 10 11 6 11 12 11 14 13 8 8 4
9 8 6 6 6 6 6 4 6 9 8 6 6 9 10 8 8 9 7 5 7 7 6 6 6 16 16 15 16 11 13 12 14 10 7 7 6 10 9 11 10 9 5
5 6 7 6 5 4 6 6 7 8 7 5 5 6 6 6 8 7 9 7 8 6 8 6 7 13 16 18 17 21 22 17 9 7 6 6 8 10 11 12 12 7 5
6 7 6 6 5 5 5 7 6 5 4 5 5 5 6 4 5 9 10 10 8 4 6 6 8 10 12 8 18 16 9 7 5 5 6 3 11 10 10 8 6 6 5
7 7 6 6 7 5 5 4 5 5 7 5 5 6 5 5 5 5 6 6 7 4 6 4 5 5 7 3 4 8 5 5 7 7 6 7 10 9 8 7 6 5 3
6 6 6 5 6 7 5 5 4 6 7 8 4 4 5 5 2 5 5 6 6 5 6 2 3 1 2 2 1 2 3 4 4 9 19 14 8 8 5 7 5 5 3
6 4 4 5 6 5 4 6 4 14 13 10 10 6 4 10 9 9 11 13 12 11 2 2 1 1 0 1 1 2 2 3 2 1 4 5 5 6 7 4 3 4 4
7 5 4 5 4 4 5 5 9 10 12 13 12 10 10 15 11 7 9 11 9 9 5 5 2 2 3 2 3 3 2 2 1 3 4 4 5 5 6 5 5 4 3
5 7 5 4 5 4 6 8 7 10 10 6 10 9 8 8 9 8 8 11 4 4 2 3 3 4 3 3 2 2 2 3 3 3 4 4 4 5 5 5 4 3 4
3 4 5 6 6 6 7 9 8 8 7 5 2 3 5 6 7 9 4 1 2 3 3 4 3 3 3 4 4 3 3 3 3 3 3 4 4 4 4 3 4 5 6
5 8 7 6 7 6 5 5 7 9 5 4 3 3 1 1 2 3 2 2 2 1 1 2 1 2 2 3 3 3 4 3 4 4 4 4 4 4 5 5 5 4 3
6 5 7 7 7 5 4 4 8 6 11 6 3 4 5 3 3 2 3 3 1 1 1 0 2 3 3 4 3 3 4 4 4 4 4 4 3 4 4 5 4 4 5
6 5 6 6 6 5 4 4 4 5 6 6 4 1 5 2 2 3 3 2 3 3 2 1 1 1 3 3 3 3 4 4 4 4 4 4 4 4 4 4 4 4 3
7 7 7 8 9 9 6 5 4 7 7 6 4 3 2 2 3 4 4 4 2 2 2 3 2 2 1 1 2 4 4 3 4 4 4 4 4 3 3 3 3 3 4
9 10 11 9 8 8 8 8 7 12 12 10 9 7 6 5 5 6 6 4 1 1 2 2 1 3 3 4 4 4 4 4 3 2 6 5 6 6 4 3 4 4 4
9 8 8 8 9 9 9 11 10 14 12 8 8 9 9 9 8 10 9 7 8 7 8 7 7 8 6 6 4 6 3 7 6 7 4 4 6 6 4 3 3 3 3
12 10 9 8 10 8 10 9 8 7 9 10 10 8 9 9 9 11 10 10 9 9 9 9 11 16 15 12 12 11 8 8 5 5 3 4 5 4 3 3 4 3 4
Wind_Direction
281 298 283 274 263 258 255 266 267 273 264 251 242 243 238 236 229 230 227 231 228 237 228 220 222 222 223 224 212 213 219 215 248 267 233 252 255 243 270 270 264 240 239
250 259 254 262 273 283 283 276 267 268 268 259 248 238 237 227 225 224 233 231 229 233 238 223 229 221 226 224 217 217 221 220 225 249 232 231 234 227 232 275 257 239 237
263 258 265 263 259 254 252 264 280 278 278 269 255 252 246 239 231 224 231 233 232 236 235 234 230 221 225 221 220 218 214 216 216 235 255 201 252 227 295 252 262 271 249
285 271 262 262 259 266 269 263 261 261 269 273 266 258 252 246 235 232 232 235 237 234 235 235 232 223 225 222 217 212 214 205 213 213 242 250 204 238 227 220 280 240 257
282 272 265 262 260 263 263 261 261 260 264 260 263 261 255 247 243 238 237 242 244 240 234 232 233 228 224 216 209 209 205 210 209 213 224 237 231 216 228 193 226 244 272
274 269 267 257 261 263 262 261 264 266 263 265 261 258 260 255 245 235 238 247 252 245 242 230 228 226 227 222 209 196 196 203 207 195 214 227 251 234 187 209 202 176 268
277 279 271 264 263 261 262 270 269 269 267 265 264 259 258 254 245 243 239 247 253 253 244 236 230 230 227 225 223 213 208 215 228 209 221 216 230 222 212 193 196 192 212
280 283 281 266 255 263 273 272 274 265 268 268 271 266 262 261 249 243 243 254 253 252 253 236 232 235 225 214 216 211 212 215 220 223 234 230 231 209 208 220 202 201 249
278 276 271 255 250 264 268 272 279 281 278 273 272 272 264 264 258 255 249 254 250 250 251 241 235 228 226 209 219 227 225 227 217 216 220 219 215 188 205 182 202 164 213
285 279 270 236 237 251 259 274 278 274 274 285 290 292 275 276 277 280 264 250 245 248 249 245 222 227 216 207 212 218 230 232 221 224 216 230 207 196 196 211 204 191 162
281 278 259 257 267 266 276 265 282 286 276 285 294 309 296 275 280 285 278 249 250 243 240 232 215 214 220 206 203 213 228 237 223 215 230 221 187 211 195 204 207 194 163
278 276 281 284 278 284 280 285 280 280 284 298 287 297 283 298 272 305 314 270 270 273 249 235 235 229 223 213 195 216 217 227 215 231 230 228 231 220 212 200 201 203 176
289 282 283 292 290 288 286 288 297 290 300 293 285 281 290 295 296 310 311 314 292 253 261 292 290 282 233 219 218 233 244 229 236 246 254 210 244 224 210 182 148 146 126
275 285 292 300 301 286 264 262 280 314 320 300 294 282 292 297 301 329 327 319 318 286 260 260 274 271 248 215 234 191 191 198 232 253 299 284 214 177 178 174 165 152 131
280 282 293 290 288 287 272 264 299 306 259 274 270 285 296 302 318 311 292 319 312 290 313 208 233 237 253 183 55 19 299 29 71 179 176 195 189 171 163 158 147 142 152
270 279 279 286 283 283 297 308 287 255 256 235 252 222 286 259 298 311 324 316 314 317 249 233 176 191 91 351 39 57 38 95 118 138 119 158 157 145 138 151 124 156 144
249 265 275 277 289 297 307 327 305 295 227 238 233 229 229 260 297 317 316 322 297 333 58 356 5 121 99 70 50 34 27 52 86 122 119 119 142 147 140 150 130 138 125
284 274 268 279 294 306 302 283 266 273 294 298 229 219 213 245 281 304 333 324 345 6 350 358 9 56 55 69 64 85 58 54 61 81 93 108 116 122 124 130 136 133 134
318 282 281 287 283 266 289 292 279 271 269 264 292 235 225 246 280 282 301 235 301 349 10 44 26 41 45 62 47 47 68 69 63 59 74 88 95 110 113 117 115 122 110
304 280 268 274 276 262 268 271 295 287 265 268 262 248 167 129 326 317 316 313 307 49 96 97 116 76 60 69 78 74 69 60 57 54 58 61 84 100 103 106 110 123 110
306 309 276 278 266 251 266 240 258 303 314 298 256 215 210 178 235 268 322 9 326 329 333 85 117 102 92 92 89 82 82 79 84 86 76 74 73 80 76 92 99 106 119
310 320 329 330 334 295 258 217 262 250 238 281 319 355 193 200 220 275 279 270 241 191 171 184 272 161 143 133 115 96 107 112 109 113 112 101 95 103 112 113 107 101 94
334 6 1 3 0 356 3 21 3 21 356 10 331 26 45 357 323 306 310 312 288 168 211 182 215 190 192 231 178 154 151 201 203 160 147 141 127 126 130 134 146 135 146
354 10 15 14 3 4 10 22 17 44 24 9 11 25 26 18 17 353 325 296 177 148 248 234 285 282 179 215 212 212 200 212 164 171 151 154 151 153 157 162 167 179 160
1 9 16 7 23 8 11 23 21 37 24 351 23 21 19 25 19 26 10 18 42 28 25 22 23 17 357 330 313 278 220 185 177 161 153 163 159 158 153 164 158 164 155
17 12 21 13 31 357 30 22 23 33 38 16 17 18 40 27 29 33 18 25 39 49 45 36 33 29 27 30 15 26 26 30 45 27 122 149 149 155 149 180 186 188 184